Location: Berg
(47.2344°N, 9.5296°E)
Time: 22:59:26
(UTC+00:00)

X-37B - Pass Details

Date: 24 January 2021
Orbit: 383 x 391 km, 45.0° (Epoch: 27 February)

Event Time Altitude Azimuth Distance (km) Brightness Sun altitude
Rises 18:25:10 0° 266° (W) 2,274 6.0 -22.4°
Reaches altitude 10° 18:27:16 10° 263° (W) 1,420 4.6 -22.8°
Enters shadow 18:29:28 38° 242° (WSW) 612 2.0 -23.1°
